JILIN-01 GAOFEN 3D 33 (52450 NORAD) Tracking and Keplerian Element Data
This shows tracking and keplerian element data for the satellite.
Feedback or suggestion? Click here.
Element | Value |
Catalog | 52450 |
Name | JILIN-01 GAOFEN 3D 33 |
Epoch Orbit | 228 |
Epoch Day | 140.1421136 |
Epoch Year | 2022 |
RAAN | 204.7624 |
Inclination | 97.6802 |
Eccentricity | 0.0013658 |
Argument of Perigee | 223.7955 |
Mean Anonmoly | 195.6948 |
Mean Motion | 15.10048355 |
Decay Rate | 0.00017383 |
L1 | 1 52450U 22048H 22140.14211360 .00017383 00000+0 10684-2 0 9991 |
L2 | 2 52450 97.6802 204.7624 0013658 223.7955 195.6948 15.10048355 2287 |
Live tracking and technical data element details for JILIN-01 GAOFEN 3D 33 (NORAD 52450). JILIN-01 GAOFEN 3D 33 can be tracked NOW for your location showing map with azimuth and elevation plus other details from your city location.
Track the satellite on the map from your city or location and see movement details for azimuth, elevation, latitude, longitude, range, height, and movement on the map or in text.
IsCatalogInMostPopularTable: catalog: 52450, numindb: 4
Update: records affected: 1
GetName: 52450 JILIN-01 GAOFEN 3D 33
Hit Count: updated at: Mon, 23 May 2022 17:41:36 GMT